Turkmenabat Airport
UTAV : now visible

Airfield :











YOU CAN JOIN US ON...

 
LOGIN :

Register | Disclaimer

   EN    FR    IT 

 









Legend :    VFR   Marginal VFR   IFR   Intensive IFR   Very Intensive IFR
Visi :
Ceiling :
>= 8 km
>= 3000ft
5 to 8 km
1000 to 3000 ft
1500m to 5 km
500 to 1000 ft
800 to 1500m
200 to 500 ft
< 800m
< 200 ft
Symbols :   Thunderstorms  Fog  Heavy snow  Heavy precipitations  Wind > 20 kt






- Airport Elevation : 630 ft
- IATA code : CRZ


UTAV - Turkmenabat

CURRENT METAR :
  • 161400Z 33014KT CAVOK 40/06 Q0999 R31/CLRD70 NOSIG

EXPIRED METARs :
  • 161300Z 34018KT CAVOK 40/04 Q0999 R31/CLRD70 NOSIG
  • 161200Z 34016KT CAVOK 41/03 Q0999 R31/CLRD70 NOSIG

TAF TAF UTAV
Valid from the 16 at 12:00 until the 17 at 12:00 UTC


161030Z 1612/1712 34016KT 6000 SCT050CB SCT100
PROB40
TEMPO 1612/1618 VRB30KT 2000 BLDU -TSRA
UTAV FIR / Asia



MET'MAP, your aeronautical weather chart ! - Copyright ORBIFLY December 2007 - Disclaimer

ORBIFLY MET'MAP TEAM :

Programming & Development : Alexandra Zaïnal
Concept & original design : Baudouin d'Aumeries
Assistance for programming : Marc-Olivier Méhu
Technical & hardware support : Manuel Goepfert

Contact : metmap@orbifly.com




SOURCES & CREDITS :

   NOAA       Earth
Advisory